Regional Weather Roundup
Issued by NWS

Home | Current Version | Previous Version | Text Only | Print | Product List | Glossary On
Versions: 1 2 3 4 5 6 7 8 9 10 11 12 13 14 15 16 17 18 19 20 21 22 23 24 25 26 27 28 29 30 31 32 33 34 35 36 37 38 39 40 41 42 43 44 45 46 47 48 49 50
000
ASUS42 KFFC 240510
RWRGA
WEATHER ROUNDUP FOR GEORGIA
NATIONAL WEATHER SERVICE PEACHTREE CITY GA
100 AM EDT MON APR 24 2017

NOTE: "FAIR" INDICATES FEW OR NO CLOUDS BELOW 12,000 FEET WITH NO
SIGNIFICANT WEATHER AND/OR OBSTRUCTIONS TO VISIBILITY.

* = USE WITH CAUTION. THE STATIONS MARKED WITH AN ASTERISK MAY NOT
REPORT WEATHER SUCH AS PRECIPITATION, FOG, OR THUNDER AND ARE NOT
QUALITY CONTROLLED BY NWS.

THE REMARK "TC" DENOTES TEMPERATURE READING IN DEGREES CELSIUS.

GAZ001>058-240600-
NORTH GEORGIA

CITY           SKY/WX    TMP DP  RH WIND       PRES   REMARKS
ATLANTA        DRIZZLE   54  53  97 E13       29.80S
ATHENS         LGT RAIN  52  52 100 NE6       29.80F
CHAMBLEE       CLOUDY    52  49  89 VRB7G17   29.80F
PEACHTREE CITY CLOUDY    55  55 100 NE6       29.80S
ROME           LGT RAIN  56  51  84 CALM      29.81S
WEST ATLANTA   CLOUDY    54  53  97 NE10      29.80S FOG
GAINESVILLE    CLOUDY    51  49  92 E13G21    29.83S
CARTERSVILLE   CLOUDY    54  51  90 VRB3      29.82S


CITY           SKY/WX    TMP DP  RH WIND       PRES   REMARKS
DALTON*        CLOUDY    54  54 100 CALM      29.81S
MARIETTA       CLOUDY    53  51  93 E8        29.80F
CANTON*        LGT RAIN  54  48  82 E6        29.82F
$$

GAZ059>098-102>109-240600-
CENTRAL GEORGIA

CITY           SKY/WX    TMP DP  RH WIND       PRES   REMARKS
AUGUSTA-BUSH   CLOUDY    64  61  90 N12       29.76F
AUGUSTA-DANIEL CLOUDY    61  57  87 N9        29.78S
COLUMBUS       MOCLDY    58  52  80 NW8       29.79S
MACON          CLOUDY    60  58  92 NE9       29.77S
ROBINS AFB     DRIZZLE   61  59  94 NE7       29.76S


CITY           SKY/WX    TMP DP  RH WIND       PRES   REMARKS
LAGRANGE*      MOCLDY    59  58  98 NW10      29.79F
SYLVANIA*      RAIN      70  68  94 CALM      29.74F
MILLEDGEVILLE* CLOUDY    59  59 100 NE5       29.77F
$$

GAZ099>101-110>166-240600-
SOUTH GEORGIA

CITY           SKY/WX    TMP DP  RH WIND       PRES   REMARKS
SAVANNAH       CLOUDY    72  67  84 S12       29.74F
VALDOSTA       CLOUDY    64  58  80 VRB5      29.78R
ALMA           PTCLDY    70  66  87 CALM      29.75F
ST SIMONS      PTCLDY    72  65  78 SE13G21   29.76F
FT STEWART     CLOUDY    70  66  87 S5        29.72F
ALBANY         MOCLDY    61  57  87 W6        29.81F
HUNTER AFB     CLOUDY    73  71  96 S9        29.72F
MOODY AFB      CLOUDY    64  57  77 NW10      29.76F
BRUNSWICK      PTCLDY    70  70 100 S8        29.77S


CITY           SKY/WX    TMP DP  RH WIND       PRES   REMARKS
BAINBRIDGE*    CLEAR     61  54  77 NW8       29.81S
MOULTRIE*      CLOUDY    63  59  88 CALM      29.79F
VIDALIA*       CLOUDY    68  64  88 NW3       29.75F
WAYCROSS*      MOCLDY    73  64  71 W6        29.75F
DOUGLAS*       CLOUDY    66  61  82 NW8       29.77F
$$




USA.gov is the U.S. government's official web portal to all federal, state and local government web resources and services.